Regional Weather Roundup
Issued by NWS

Home | Current Version | Previous Version | Graphics & Text | Print | Product List | Glossary Off
Versions: 1 2 3 4 5 6 7 8 9 10 11 12 13 14 15 16 17 18 19 20 21 22 23 24 25 26 27 28 29 30 31 32 33 34 35 36 37 38 39 40 41 42 43 44 45 46 47 48 49 50

000
ASUS43 KLSX 240207
RWRMO

WEATHER SUMMARY FOR MISSOURI
NATIONAL WEATHER SERVICE SPRINGFIELD MO
800 PM CST SUN NOV 23 2014

NOTE: "FAIR" INDICATES FEW OR NO CLOUDS BELOW 12,000 FEET WITH NO
       SIGNIFICANT WEATHER AND/OR OBSTRUCTIONS TO VISIBILITY.
       CURRENT SKY AND/OR WEATHER CONDITIONS ARE NOT AVAILABLE FOR
       CHILLICOTHE AND FARMINGTON.

MOZ001>031-035>038-043-044-053-054-240300-
...NORTHERN AND WESTERN MISSOURI...

CITY           SKY/WX    TMP DP  RH WIND       PRES   REMARKS
KANSAS CTY INT LGT RAIN  42  41  96 N30G39    29.45R
KANSAS C DTWN  LGT RAIN  43  38  82 NW21G31   29.44R
ST JOSEPH      LGT RAIN  41  37  86 N22G37    29.50R
CHILLICOTHE      N/A     45  42  89 NW9G22    29.37R
KIRKSVILLE     CLOUDY    48  48 100 NW15      29.29R FOG

$$
MOZ066>068-077>081-088>096-101>105-240300-
...SOUTHWEST MISSOURI...

CITY           SKY/WX    TMP DP  RH WIND       PRES   REMARKS
SPRINGFIELD    LGT RAIN  54  52  93 S7        29.28S
JOPLIN         LGT RAIN  46  44  93 NW23G35   29.41R

$$
MOZ032>034-039>042-045>050-055>058-069>072-240300-
...CENTRAL MISSOURI...

CITY           SKY/WX    TMP DP  RH WIND       PRES   REMARKS
COLUMBIA       FOG       53  53 100 W5        29.27F VSB 3/4
JEFFERSON CITY CLOUDY    55  53  93 CALM      29.28F
ROLLA          CLOUDY    53  52  96 SW8       29.27F
SEDALIA        RAIN      47  46  97 NW29G37   29.31R FOG
WHITEMAN AFB   DRIZZLE   46  44  92 NW23      29.33R
WARRENSBURG    DRIZZLE   45  41  87 NW20G35   29.36R
OSAGE BEACH    CLOUDY    54  52  94 CALM      29.28F VSB 1/2

$$
MOZ051-052-059>065-240300-
...EAST CENTRAL MISSOURI...

CITY           SKY/WX    TMP DP  RH WIND       PRES   REMARKS
ST LOUIS INTL  DRIZZLE   55  54  94 S5        29.26F FOG
SPIRIT OF STL  CLOUDY    52  52 100 CALM      29.26F FOG
ST CHARLES     FOG       51  51 100 E3        29.26F VSB 3/4

$$
MOZ072>076-082>087-097>100-106>115-240300-
...SOUTH CENTRAL AND SOUTHEAST MISSOURI...

CITY           SKY/WX    TMP DP  RH WIND       PRES   REMARKS
CAPE GIRARDEAU CLOUDY    56  56 100 SW14      29.32S
FARMINGTON     CLOUDY    55  54  94 S6        29.31R
POPLAR BLUFF   CLOUDY    57  55  93 SW14      29.34R FOG
WEST PLAINS    CLOUDY    56  55  97 S8        29.34S

$$


USA.gov is the U.S. government's official web portal to all federal, state and local government web resources and services.